Hurghada, Egypt

4:38 AM EET on February 24, 2018 (GMT +0200)
Hurghada

Weather History for HEGN - June, 2012

Change the Weather History Date:

Wednesday, June 20, 2012

  Actual Average Record
Temperature  
Mean Temperature 90 °F -  
Max Temperature 100 °F 95 °F 112 °F (2014)
Min Temperature 81 °F 80 °F 75 °F (2006)
Cooling Degree Days 26    
Growing Degree Days 40 (Base 50)    
Moisture  
Dew Point 63 °F    
Average Humidity 39    
Maximum Humidity 70    
Minimum Humidity 16    
Precipitation  
Precipitation 0.00 in - - ()
Sea Level Pressure  
Sea Level Pressure 29.61 in    
Wind  
Wind Speed 15 mph ()    
Max Wind Speed 25 mph    
Max Gust Speed -    
Visibility 6.0 miles    
Events      
Averages and records for this station are not official NWS values.
T = Trace of Precipitation, MM = Missing Value Source: Averaged Metar Reports

Daily Weather History Graph

Daily Weather History Graph

Search for Another Location

Airport or City:

Trip Planner

Search our weather history database for the weather conditions in past years. The results will help you decide how hot, cold, wet, or windy it might be!

Date:

Astronomy

Jun. 20, 2012 Rise Set
Actual Time 4:51 AM EET 6:42 PM EET
Civil Twilight 4:24 AM EET 7:08 PM EET
Nautical Twilight 3:52 AM EET 7:40 PM EET
Astronomical Twilight 3:18 AM EET 8:14 PM EET
Moon 5:26 AM EET (6/20) 7:21 PM EET (6/20)
Length of Visible Light 14h 44m
Length of Day
13h 51m
New Moon, 1% of the Moon is Illuminated
Jun 20
New Moon
Jun 27
First Quarter
Jul 3
Full
Jul 11
Last Quarter
Jul 19
New

Hourly Weather History & Observations

Time (EET) Temp. Heat Index Dew Point Humidity Pressure Visibility Wind Dir Wind Speed Gust Speed Precip Events Conditions
12:00 AM 91.4 °F 91.4 °F 60.8 °F 36% 29.65 in - NNW 17.3 mph - N/A   Clear
1:00 AM 89.6 °F 91.1 °F 64.4 °F 43% 29.65 in - NNW 17.3 mph - N/A   Clear
2:00 AM 88 °F - 70 °F 45% 29.64 in 6 mi NNW 18.4 mph - -  
2:00 AM 87.8 °F 92.6 °F 69.8 °F 55% 29.62 in - NNW 18.4 mph - N/A   Clear
3:00 AM 86.0 °F 90.4 °F 69.8 °F 58% 29.62 in - NW 9.2 mph - N/A   Clear
4:00 AM 82.4 °F 87.2 °F 71.6 °F 70% 29.62 in - WNW 15.0 mph - N/A   Clear
5:00 AM 82.4 °F 87.2 °F 71.6 °F 70% 29.62 in - NW 13.8 mph - N/A   Clear
6:00 AM 82.4 °F 87.2 °F 71.6 °F 70% 29.62 in - WNW 17.3 mph - N/A   Clear
7:00 AM 87.8 °F 91.4 °F 68.0 °F 52% 29.65 in - NW 15.0 mph - N/A   Clear
8:00 AM 89 °F - 67 °F 39% 29.66 in 6 mi North 13.8 mph - -  
8:00 AM 87.8 °F 91.4 °F 68.0 °F 52% 29.65 in - North 13.8 mph - N/A   Clear
9:00 AM 89.6 °F 96.2 °F 71.6 °F 55% 29.65 in - North 20.7 mph - N/A   Clear
10:00 AM 93.2 °F 98.8 °F 69.8 °F 46% 29.62 in - North 18.4 mph - N/A   Clear
11:00 AM 95.0 °F 99.5 °F 68.0 °F 41% 29.62 in - North 16.1 mph - N/A   Clear
12:00 PM 100.4 °F 102.4 °F 62.6 °F 29% 29.59 in - North 19.6 mph - N/A   Clear
1:00 PM 100.4 °F 101.3 °F 60.8 °F 27% 29.56 in - North 19.6 mph - N/A   Clear
2:00 PM 99 °F - 57 °F 16% 29.57 in 6 mi North 16.1 mph - -  
2:00 PM 98.6 °F 97.6 °F 57.2 °F 25% 29.56 in - North 16.1 mph - N/A   Clear
3:00 PM 100.4 °F 99.7 °F 57.2 °F 24% 29.56 in - North 21.9 mph - N/A   Clear
4:00 PM 98.6 °F 96.4 °F 53.6 °F 22% 29.56 in - North 25.3 mph - N/A   Clear
5:00 PM 98.6 °F 96.4 °F 53.6 °F 22% 29.56 in - North 23.0 mph - N/A   Clear
6:00 PM 96.8 °F 95.8 °F 57.2 °F 27% 29.56 in - North 19.6 mph - N/A   Clear
7:00 PM 93.2 °F 93.3 °F 60.8 °F 34% 29.56 in - North 15.0 mph - N/A   Clear
8:00 PM 94 °F - 58 °F 20% 29.60 in 6 mi North 15.0 mph - -  
9:00 PM 93.2 °F 91.3 °F 55.4 °F 28% 29.59 in - NNW 15.0 mph - N/A   Clear
10:00 PM 91.4 °F 89.1 °F 53.6 °F 28% 29.62 in - WNW 13.8 mph - N/A   Clear
11:00 PM 89.6 °F 87.3 °F 53.6 °F 29% 29.62 in - WNW 17.3 mph - N/A   Clear